Time,TemperatureF,DewpointF,PressureIn,WindDirection,WindDirectionDegrees,WindSpeedMPH,WindSpeedGustMPH,Humidity,HourlyPrecipIn,Conditions,Clouds,dailyrainin,SoftwareType,DateUTC
2013-08-20 00:13:00,65.0,62.0,30.04,SW,215,0.0,0.0,91,0.00,,,0.00,,2013-08-20 04:13:00,
2013-08-20 00:23:00,65.0,63.0,30.04,SW,215,0.0,1.0,93,0.00,,,0.00,,2013-08-20 04:23:00,
2013-08-20 00:43:00,65.0,63.0,30.05,SW,215,0.0,0.0,93,0.00,,,0.00,,2013-08-20 04:43:00,
2013-08-20 00:53:00,65.0,63.0,30.05,SW,215,0.0,0.0,94,0.00,,,0.00,,2013-08-20 04:53:00,
2013-08-20 01:12:00,64.0,62.0,30.05,SW,216,0.0,0.0,94,0.00,,,0.00,,2013-08-20 05:12:00,
2013-08-20 01:22:00,64.0,62.0,30.05,SW,215,0.0,0.0,94,0.00,,,0.00,,2013-08-20 05:22:00,
2013-08-20 01:42:00,64.0,62.0,30.05,SW,215,0.0,0.0,94,0.00,,,0.00,,2013-08-20 05:42:00,
2013-08-20 01:52:00,64.0,63.0,30.05,SW,216,0.0,0.0,95,0.00,,,0.00,,2013-08-20 05:52:00,
2013-08-20 02:11:00,64.0,63.0,30.05,SW,215,0.0,0.0,95,0.00,,,0.00,,2013-08-20 06:11:00,
2013-08-20 02:22:00,64.0,63.0,30.05,SW,215,0.0,0.0,95,0.00,,,0.00,,2013-08-20 06:22:00,
2013-08-20 02:42:00,63.0,62.0,30.05,SW,215,0.0,0.0,96,0.00,,,0.00,,2013-08-20 06:42:00,
2013-08-20 02:52:00,63.0,62.0,30.05,SSW,198,0.0,2.0,96,0.00,,,0.00,,2013-08-20 06:52:00,
2013-08-20 03:11:00,63.0,62.0,30.05,SSW,203,0.0,1.0,97,0.00,,,0.00,,2013-08-20 07:11:00,
2013-08-20 03:22:00,63.0,62.0,30.05,SSW,203,0.0,0.0,96,0.00,,,0.00,,2013-08-20 07:22:00,
2013-08-20 03:42:00,62.0,61.0,30.05,SSW,195,0.0,3.0,97,0.00,,,0.00,,2013-08-20 07:42:00,
2013-08-20 03:52:00,62.0,61.0,30.05,South,176,2.0,4.0,97,0.00,,,0.00,,2013-08-20 07:52:00,
2013-08-20 04:11:00,62.0,61.0,30.05,SSE,161,0.0,2.0,96,0.00,,,0.00,,2013-08-20 08:11:00,
2013-08-20 04:22:00,62.0,61.0,30.05,SSE,161,0.0,0.0,96,0.00,,,0.00,,2013-08-20 08:22:00,
2013-08-20 04:52:00,62.0,61.0,30.05,SSE,160,0.0,0.0,97,0.00,,,0.00,,2013-08-20 08:52:00,
2013-08-20 05:11:00,62.0,61.0,30.05,SSE,160,0.0,0.0,97,0.00,,,0.00,,2013-08-20 09:11:00,
2013-08-20 05:21:00,61.0,60.0,30.06,SSE,160,0.0,1.0,97,0.00,,,0.00,,2013-08-20 09:21:00,
2013-08-20 05:42:00,61.0,60.0,30.06,SSE,160,0.0,0.0,97,0.00,,,0.00,,2013-08-20 09:42:00,
2013-08-20 05:53:00,61.0,60.0,30.06,SSE,161,0.0,0.0,97,0.00,,,0.00,,2013-08-20 09:53:00,
2013-08-20 06:12:00,61.0,60.0,30.06,SSE,161,0.0,0.0,97,0.00,,,0.00,,2013-08-20 10:12:00,
2013-08-20 06:23:00,60.0,59.0,30.07,SSE,160,0.0,0.0,97,0.00,,,0.00,,2013-08-20 10:23:00,
2013-08-20 06:42:00,60.0,59.0,30.07,SSE,160,0.0,0.0,97,0.00,,,0.00,,2013-08-20 10:42:00,
2013-08-20 06:52:00,60.0,59.0,30.08,SSE,161,0.0,0.0,98,0.00,,,0.00,,2013-08-20 10:52:00,
2013-08-20 07:11:00,60.0,59.0,30.08,SSE,160,0.0,0.0,98,0.00,,,0.00,,2013-08-20 11:11:00,
2013-08-20 07:22:00,60.0,59.0,30.09,SSE,160,0.0,0.0,98,0.00,,,0.00,,2013-08-20 11:22:00,
2013-08-20 07:42:00,60.0,59.0,30.09,SSE,161,0.0,0.0,98,0.00,,,0.00,,2013-08-20 11:42:00,
2013-08-20 07:52:00,60.0,59.0,30.09,SSE,161,0.0,0.0,98,0.00,,,0.00,,2013-08-20 11:52:00,
2013-08-20 08:12:00,61.0,60.0,30.09,SSE,160,0.0,1.0,97,0.00,,,0.00,,2013-08-20 12:12:00,
2013-08-20 08:21:00,62.0,61.0,30.09,South,186,0.0,2.0,98,0.00,,,0.00,,2013-08-20 12:21:00,
2013-08-20 08:42:00,64.0,63.0,30.10,SSE,167,1.0,2.0,96,0.00,,,0.00,,2013-08-20 12:42:00,
2013-08-20 08:52:00,66.0,64.0,30.10,SSE,156,0.0,1.0,93,0.00,,,0.00,,2013-08-20 12:52:00,
2013-08-20 09:11:00,68.0,65.0,30.11,SSE,150,0.0,1.0,90,0.00,,,0.00,,2013-08-20 13:11:00,
2013-08-20 09:42:00,71.0,66.0,30.11,SSE,152,0.0,2.0,85,0.00,,,0.00,,2013-08-20 13:42:00,
2013-08-20 09:52:00,71.0,66.0,30.11,SSE,152,0.0,2.0,85,0.00,,,0.00,,2013-08-20 13:52:00,
2013-08-20 10:11:00,74.0,68.0,30.11,SE,129,0.0,2.0,82,0.00,,,0.00,,2013-08-20 14:11:00,
2013-08-20 10:22:00,76.0,69.0,30.11,SSE,150,1.0,4.0,78,0.00,,,0.00,,2013-08-20 14:22:00,
2013-08-20 10:52:00,78.0,69.0,30.12,WSW,253,1.0,4.0,73,0.00,,,0.00,,2013-08-20 14:52:00,
2013-08-20 11:11:00,78.0,68.0,30.12,SW,217,2.0,6.0,71,0.00,,,0.00,,2013-08-20 15:11:00,
2013-08-20 11:22:00,79.0,68.0,30.11,SW,228,1.0,5.0,70,0.00,,,0.00,,2013-08-20 15:22:00,
2013-08-20 11:43:00,80.0,68.0,30.11,WSW,245,1.0,5.0,67,0.00,,,0.00,,2013-08-20 15:43:00,
2013-08-20 11:54:00,81.0,67.0,30.11,SSW,195,3.0,6.0,63,0.00,,,0.00,,2013-08-20 15:54:00,
2013-08-20 12:15:00,81.0,67.0,30.11,South,169,3.0,7.0,62,0.00,,,0.00,,2013-08-20 16:15:00,
2013-08-20 12:30:00,-999.0,-99.9,30.11,South,169,3.0,6.0,61,0.00,,,0.00,,2013-08-20 16:30:00,
2013-08-20 12:42:00,82.0,66.0,30.11,SW,235,1.0,8.0,59,0.00,,,0.00,,2013-08-20 16:42:00,
2013-08-20 12:53:00,82.0,66.0,30.11,SSE,150,3.0,6.0,59,0.00,,,0.00,,2013-08-20 16:53:00,
2013-08-20 13:12:00,83.0,65.0,30.10,SSW,204,2.0,7.0,55,0.00,,,0.00,,2013-08-20 17:12:00,
2013-08-20 13:24:00,83.0,66.0,30.10,WSW,249,2.0,8.0,56,0.00,,,0.00,,2013-08-20 17:24:00,
2013-08-20 13:43:00,84.0,66.0,30.10,South,170,2.0,6.0,55,0.00,,,0.00,,2013-08-20 17:43:00,
2013-08-20 13:52:00,83.0,67.0,30.10,SSW,194,2.0,5.0,58,0.00,,,0.00,,2013-08-20 17:52:00,
2013-08-20 14:12:00,83.0,67.0,30.10,SSE,150,4.0,7.0,58,0.00,,,0.00,,2013-08-20 18:12:00,
2013-08-20 14:22:00,83.0,65.0,30.09,WSW,240,5.0,8.0,55,0.00,,,0.00,,2013-08-20 18:22:00,
2013-08-20 14:52:00,85.0,68.0,30.08,SE,127,3.0,6.0,57,0.00,,,0.00,,2013-08-20 18:52:00,
2013-08-20 15:11:00,85.0,66.0,30.08,SE,131,2.0,8.0,53,0.00,,,0.00,,2013-08-20 19:11:00,
2013-08-20 15:22:00,84.0,67.0,30.08,SW,229,2.0,6.0,56,0.00,,,0.00,,2013-08-20 19:22:00,
2013-08-20 15:42:00,85.0,66.0,30.07,WSW,242,3.0,9.0,53,0.00,,,0.00,,2013-08-20 19:42:00,
2013-08-20 15:53:00,84.0,66.0,30.06,SW,215,5.0,9.0,55,0.00,,,0.00,,2013-08-20 19:53:00,
2013-08-20 16:12:00,85.0,66.0,30.06,South,188,5.0,7.0,54,0.00,,,0.00,,2013-08-20 20:12:00,
2013-08-20 16:22:00,85.0,66.0,30.06,South,172,3.0,6.0,54,0.00,,,0.00,,2013-08-20 20:22:00,
2013-08-20 16:42:00,86.0,66.0,30.05,SSW,212,2.0,8.0,51,0.00,,,0.00,,2013-08-20 20:42:00,
2013-08-20 16:52:00,86.0,66.0,30.05,WSW,243,1.0,8.0,52,0.00,,,0.00,,2013-08-20 20:52:00,
2013-08-20 17:03:00,86.0,66.0,30.05,WSW,243,1.0,8.0,52,0.00,,,0.00,,2013-08-20 21:03:00,
2013-08-20 17:11:00,86.0,66.0,30.05,WSW,243,1.0,8.0,52,0.00,,,0.00,,2013-08-20 21:11:00,
2013-08-20 17:22:00,86.0,67.0,30.04,WNW,285,1.0,6.0,53,0.00,,,0.00,,2013-08-20 21:22:00,
2013-08-20 17:44:00,86.0,65.0,30.04,WSW,251,3.0,8.0,50,0.00,,,0.00,,2013-08-20 21:44:00,
2013-08-20 17:55:00,86.0,66.0,30.04,SSE,163,2.0,8.0,52,0.00,,,0.00,,2013-08-20 21:55:00,
2013-08-20 18:14:00,86.0,65.0,30.04,SE,135,1.0,4.0,50,0.00,,,0.00,,2013-08-20 22:14:00,
2013-08-20 18:24:00,86.0,66.0,30.04,SSE,160,4.0,7.0,51,0.00,,,0.00,,2013-08-20 22:24:00,
2013-08-20 18:42:00,86.0,66.0,30.04,South,184,1.0,5.0,51,0.00,,,0.00,,2013-08-20 22:42:00,
2013-08-20 18:54:00,85.0,67.0,30.04,SSW,204,1.0,5.0,55,0.00,,,0.00,,2013-08-20 22:54:00,
2013-08-20 19:12:00,86.0,67.0,30.03,SSE,153,1.0,3.0,53,0.00,,,0.00,,2013-08-20 23:12:00,
2013-08-20 19:22:00,85.0,68.0,30.03,SSE,150,0.0,3.0,57,0.00,,,0.00,,2013-08-20 23:22:00,
2013-08-20 19:42:00,84.0,67.0,30.03,SE,142,0.0,2.0,57,0.00,,,0.00,,2013-08-20 23:42:00,
2013-08-20 19:53:00,84.0,69.0,30.03,SSE,149,0.0,1.0,61,0.00,,,0.00,,2013-08-20 23:53:00,
2013-08-20 20:12:00,83.0,69.0,30.03,SSE,150,0.0,1.0,63,0.00,,,0.00,,2013-08-21 00:12:00,
2013-08-20 20:23:00,81.0,69.0,30.04,SSE,148,0.0,1.0,68,0.00,,,0.00,,2013-08-21 00:23:00,
2013-08-20 20:42:00,80.0,70.0,30.04,SSE,148,0.0,0.0,71,0.00,,,0.00,,2013-08-21 00:42:00,
2013-08-20 20:52:00,77.0,68.0,30.04,SSE,148,0.0,0.0,74,0.00,,,0.00,,2013-08-21 00:52:00,
2013-08-20 21:11:00,76.0,67.0,30.04,SE,136,0.0,1.0,75,0.00,,,0.00,,2013-08-21 01:11:00,
2013-08-20 21:22:00,76.0,68.0,30.05,SE,146,0.0,1.0,77,0.00,,,0.00,,2013-08-21 01:22:00,
2013-08-20 21:42:00,75.0,68.0,30.05,SE,146,0.0,0.0,78,0.00,,,0.00,,2013-08-21 01:42:00,
2013-08-20 21:52:00,74.0,68.0,30.05,SE,145,0.0,1.0,81,0.00,,,0.00,,2013-08-21 01:52:00,
2013-08-20 22:12:00,74.0,67.0,30.05,SSW,198,0.0,2.0,80,0.00,,,0.00,,2013-08-21 02:12:00,
2013-08-20 22:22:00,74.0,67.0,30.06,SW,215,0.0,1.0,80,0.00,,,0.00,,2013-08-21 02:22:00,
2013-08-20 22:42:00,72.0,66.0,30.06,SE,145,1.0,1.0,82,0.00,,,0.00,,2013-08-21 02:42:00,
2013-08-20 22:52:00,72.0,66.0,30.06,South,188,0.0,2.0,82,0.00,,,0.00,,2013-08-21 02:52:00,
2013-08-20 23:12:00,73.0,66.0,30.06,South,190,2.0,4.0,80,0.00,,,0.00,,2013-08-21 03:12:00,
2013-08-20 23:23:00,72.0,66.0,30.06,SSE,167,2.0,4.0,81,0.00,,,0.00,,2013-08-21 03:23:00,
2013-08-20 23:44:00,72.0,66.0,30.06,SSE,162,1.0,3.0,81,0.00,,,0.00,,2013-08-21 03:44:00,
2013-08-20 23:55:00,72.0,66.0,30.07,South,190,1.0,2.0,81,0.00,,,0.00,,2013-08-21 03:55:00,